CW1172 Weather Reports


time (UTC)temp
C
wind
direction
speed
KPH
gust
KPH
rain 1hr
cm
rain 24hr
cm
rain mn
cm
humidity
%
barometer
mb
20260902161526 17 360 0.0 0.0 0.00 0.00 0.05 69 1009.7
20260902160026 17 295 0.0 0.0 0.00 0.00 0.05 66 1009.7
20260902154532 17 210 0.0 0.0 0.00 0.00 0.05 65 1009.7
20260902153026 17 206 0.0 0.0 0.00 0.00 0.05 65 1009.7
20260902151526 17 360 0.0 0.0 0.00 0.00 0.05 68 1009.7
20260902150026 17 271 0.0 0.0 0.00 0.00 0.05 71 1009.7
20260902144524 17 283 0.0 0.0 0.00 0.00 0.05 70 1009.8
20260902143024 17 240 0.0 0.0 0.00 0.00 0.05 68 1009.9
20260902141526 18 296 0.0 0.0 0.00 0.00 0.05 67 1009.7
20260902140035 18 277 0.0 0.0 0.00 0.00 0.05 65 1009.7
20260902134527 17 307 0.0 0.0 0.00 0.00 0.05 67 1009.8
20260902133028 18 277 0.0 0.0 0.00 0.00 0.05 62 1009.8
20260902131529 18 244 0.0 0.0 0.00 0.00 0.05 60 1010.0
20260902130025 18 99 0.0 0.0 0.00 0.00 0.05 58 1009.9
20260902124531 18 237 0.0 0.0 0.00 0.00 0.05 60 1009.8
20260902123024 18 360 0.0 0.0 0.00 0.00 0.05 60 1009.9
20260902121524 18 360 0.0 0.0 0.00 0.00 0.05 59 1010.0
20260902120022 18 360 0.0 0.0 0.00 0.00 0.05 61 1010.0
20260902114523 19 360 0.0 0.0 0.00 0.00 0.05 61 1010.0
20260902113020 18 360 0.0 0.0 0.00 0.00 0.05 66 1010.1
20260902111520 18 360 0.0 0.0 0.00 0.00 0.05 63 1010.1
20260902110021 18 360 0.0 0.0 0.00 0.00 0.05 62 1010.2
20260902104520 18 272 0.0 0.0 0.00 0.00 0.05 63 1010.1
20260902103033 18 360 0.0 0.0 0.00 0.00 0.05 61 1010.2
20260902101528 18 316 0.0 0.0 0.00 0.00 0.05 60 1010.1
20260902100018 18 178 0.0 0.0 0.00 0.00 0.05 60 1010.1
20260902094517 18 285 0.0 0.0 0.00 0.00 0.05 58 1010.1
20260902093016 18 261 0.0 0.0 0.00 0.00 0.05 61 1010.1
20260902091516 18 355 0.0 0.0 0.00 0.00 0.05 60 1010.1
20260902090017 18 273 0.0 0.0 0.00 0.00 0.05 62 1009.9
20260902084521 17 287 0.0 0.0 0.00 0.00 0.05 61 1009.8
20260902083013 17 297 0.0 0.0 0.00 0.00 0.05 65 1009.7
20260902081513 17 320 0.0 0.0 0.00 0.00 0.05 66 1009.6
20260902080009 17 360 0.0 0.0 0.00 0.00 0.05 69 1009.6
20260902074506 16 206 0.0 0.0 0.00 0.00 0.05 73 1009.4
20260902073004 16 279 0.0 0.0 0.00 0.00 0.05 78 1009.2
20260902071502 16 268 0.0 0.0 0.00 0.00 0.05 81 1009.1
20260902070001 16 259 0.0 0.0 0.00 0.00 0.05 85 1009.0
20260902064619 16 257 0.0 0.0 0.00 0.00 0.05 87 1008.9
20260902063100 16 256 0.0 0.0 0.00 0.00 0.05 87 1008.9
20260902061558 15 360 0.0 0.0 0.00 0.00 0.05 89 1009.0
20260902060110 15 228 0.0 0.0 0.00 0.00 0.05 90 1008.9
20260902054559 15 213 0.0 0.0 0.00 0.00 0.05 90 1008.8
20260902053056 15 227 0.0 0.0 0.00 0.00 0.05 90 1008.8
20260902051556 15 259 0.0 0.0 0.00 0.00 0.05 91 1008.8
20260902050110 15 242 0.0 0.0 0.00 0.00 0.05 91 1008.8
20260902044607 15 211 0.0 0.0 0.00 0.00 0.05 91 1008.7
20260902043056 15 197 0.0 0.0 0.00 0.00 0.05 91 1008.7
20260902041553 15 204 0.0 0.0 0.00 0.00 0.05 91 1008.8
20260902040056 15 222 0.0 0.0 0.00 0.00 0.05 91 1008.8
20260902034601 15 230 0.0 0.0 0.00 0.00 0.05 91 1009.0
20260902033104 15 210 0.0 0.0 0.00 0.00 0.05 91 1008.9
20260902031553 15 196 0.0 0.0 0.00 0.00 0.05 91 1009.0
20260902030051 15 202 0.0 0.0 0.00 0.00 0.05 90 1009.2
20260902024556 15 360 0.0 0.0 0.00 0.00 0.05 90 1009.3
20260902023053 15 201 0.0 0.0 0.00 0.00 0.05 89 1009.3
20260902021553 15 219 0.0 0.0 0.00 0.00 0.00 87 1009.3
20260902020051 15 246 0.0 0.0 0.00 0.00 0.00 85 1009.5
20260902014546 15 209 0.0 0.0 0.00 0.00 0.00 84 1009.7
20260902013045 15 246 0.0 0.0 0.00 0.00 0.00 84 1009.7
20260902011545 15 202 0.0 0.0 0.00 0.00 0.00 84 1009.8
20260902010045 15 250 0.0 0.0 0.00 0.00 0.00 84 1009.8
20260902004543 14 360 0.0 0.0 0.00 0.00 0.00 84 1009.9
20260902003042 14 220 0.0 0.0 0.00 0.00 0.00 84 1009.9
20260902001542 14 247 0.0 0.0 0.00 0.00 0.00 84 1009.9
20260902000042 14 201 0.0 0.0 0.00 0.00 0.00 84 1009.9
20260901234541 14 226 0.0 0.0 0.00 0.00 0.00 84 1010.0
20260901233040 14 197 0.0 0.0 0.00 0.00 0.00 84 1010.0
20260901231540 14 218 0.0 0.0 0.00 0.00 0.00 84 1010.2
20260901230040 14 211 0.0 0.0 0.00 0.00 0.00 83 1010.1
20260901224538 15 190 0.0 0.0 0.00 0.00 0.00 82 1010.0
20260901223042 15 203 0.0 0.0 0.00 0.00 0.00 82 1010.3
20260901221534 15 171 0.0 0.0 0.00 0.00 0.00 82 1010.3
20260901220037 15 228 0.0 0.0 0.00 0.00 0.00 82 1010.3
20260901214535 15 217 0.0 0.0 0.00 0.00 0.00 82 1010.1
20260901213044 15 212 0.0 0.0 0.00 0.00 0.00 82 1010.1
20260901211531 15 188 0.0 0.0 0.00 0.00 0.00 82 1009.9
20260901210033 15 261 0.0 0.0 0.00 0.00 0.00 83 1010.0
20260901204536 15 214 0.0 0.0 0.00 0.00 0.00 84 1009.9
20260901203034 16 215 0.0 0.0 0.00 0.00 0.00 84 1009.8
20260901201531 16 238 0.0 0.0 0.00 0.00 0.00 84 1009.8
20260901200030 16 235 0.0 0.0 0.00 0.00 0.00 84 1009.8
20260901194529 16 196 0.0 0.0 0.00 0.00 0.00 85 1009.8
20260901193030 16 205 0.0 0.0 0.00 0.00 0.00 86 1009.7
20260901191529 16 248 0.0 0.0 0.00 0.00 0.00 86 1009.6
20260901190028 16 200 0.0 0.0 0.00 0.00 0.00 85 1009.7
20260901184539 16 360 0.0 0.0 0.00 0.00 0.00 85 1009.7
20260901183033 16 202 0.0 0.0 0.00 0.00 0.00 84 1009.6
20260901181532 16 240 0.0 0.0 0.00 0.00 0.00 84 1009.7
20260901180026 16 202 0.0 0.0 0.00 0.00 0.00 83 1009.6
20260901174526 16 229 0.0 0.0 0.00 0.00 0.00 82 1009.6
20260901173024 16 214 0.0 0.0 0.00 0.00 0.00 82 1009.5
20260901171524 16 250 0.0 0.0 0.00 0.00 0.00 81 1009.3
20260901170024 16 217 0.0 0.0 0.00 0.00 0.00 81 1009.4
20260901164523 16 360 0.0 0.0 0.00 0.00 0.00 81 1009.3
20260901163022 16 360 0.0 0.0 0.00 0.00 0.00 80 1009.3